FW1492 Weather Reports


time (UTC)temp
C
wind
direction
speed
KPH
gust
KPH
rain 1hr
cm
rain 24hr
cm
rain mn
cm
humidity
%
barometer
mb
20260506204516 13 270 4.8 9.7 0.00 0.41 0.41 96 1006.6
20260506203014 13 236 4.8 0.0 0.00 0.00 0.41 96 1006.4
20260506201516 13 240 1.6 6.4 0.03 0.41 0.41 95 1006.6
20260506200030 13 240 1.6 9.7 0.05 0.41 0.41 95 1006.6
20260506194513 14 212 1.6 9.7 0.10 0.41 0.41 96 1006.9
20260506193009 13 222 4.8 11.3 0.15 0.41 0.41 95 1007.2
20260506191509 14 249 3.2 8.0 0.15 0.38 0.38 95 1007.3
20260506190007 14 165 1.6 4.8 0.15 0.36 0.36 95 1007.2
20260506184506 14 222 1.6 6.4 0.08 0.28 0.28 95 1007.5
20260506183006 14 228 1.6 6.4 0.05 0.25 0.25 95 1007.5
20260506181505 13 231 3.2 8.0 0.05 0.23 0.23 95 1007.5
20260506180014 13 243 3.2 9.7 0.03 0.20 0.20 94 1007.6
20260506174503 13 128 1.6 11.3 0.05 0.20 0.20 94 1007.7
20260506173003 13 212 3.2 9.7 0.05 0.20 0.20 94 1007.8
20260506171611 14 198 4.8 9.7 0.08 0.18 0.18 94 1007.5
20260506170112 14 179 3.2 16.1 0.13 0.18 0.18 94 1007.5
20260506164614 14 214 3.2 9.7 0.10 0.15 0.15 93 1007.7
20260506163102 15 204 3.2 9.7 0.10 0.15 0.15 93 1007.7
20260506161554 15 188 4.8 9.7 0.08 0.10 0.10 92 1008.2
20260506160105 15 165 1.6 6.4 0.05 0.05 0.05 92 1008.4
20260506154553 15 186 1.6 8.0 0.05 0.05 0.05 91 1008.7
20260506153048 15 226 1.6 8.0 0.05 0.05 0.05 91 1008.5
20260506151549 15 217 1.6 4.8 0.03 0.03 0.03 89 1008.7
20260506150046 16 211 1.6 9.7 0.00 0.00 0.00 86 1009.0
20260506144545 16 193 3.2 9.7 0.00 0.00 0.00 84 1009.1
20260506143044 16 207 1.6 8.0 0.00 0.00 0.00 84 1009.0
20260506141603 16 212 1.6 8.0 0.00 0.00 0.00 84 1008.8
20260506140044 16 202 1.6 6.4 0.00 0.00 0.00 83 1008.8
20260506134543 16 243 4.8 9.7 0.00 0.00 0.00 83 1009.1
20260506133042 16 205 3.2 9.7 0.00 0.00 0.00 82 1009.1
20260506131543 16 229 3.2 9.7 0.00 0.00 0.00 83 1009.0
20260506130041 16 212 3.2 9.7 0.00 0.00 0.00 84 1009.0
20260506124640 16 207 3.2 9.7 0.00 0.00 0.00 84 1008.8
20260506123043 16 223 1.6 9.7 0.00 0.00 0.00 85 1008.9
20260506121538 15 176 4.8 9.7 0.00 0.00 0.00 85 1008.9
20260506120104 15 204 3.2 9.7 0.00 0.00 0.00 86 1009.2
20260506114536 15 168 3.2 9.7 0.00 0.00 0.00 86 1009.1
20260506113036 15 221 4.8 11.3 0.00 0.00 0.00 86 1009.1
20260506111539 15 202 3.2 9.7 0.00 0.00 0.00 87 1009.0
20260506110035 15 225 1.6 8.0 0.00 0.00 0.00 87 1009.0
20260506104533 15 213 1.6 11.3 0.00 0.00 0.00 87 1008.8
20260506103035 15 210 3.2 8.0 0.00 0.00 0.00 87 1008.9
20260506101533 15 208 1.6 8.0 0.00 0.00 0.00 87 1008.7
20260506100033 15 172 4.8 9.7 0.00 0.00 0.00 87 1008.8
20260506094535 15 210 3.2 9.7 0.00 0.00 0.00 86 1008.7
20260506093041 15 205 4.8 8.0 0.00 0.00 0.00 86 1008.7
20260506091527 15 221 3.2 8.0 0.00 0.00 0.00 86 1008.8
20260506090025 15 203 4.8 11.3 0.00 0.00 0.00 85 1008.8
20260506084522 15 195 4.8 9.7 0.00 0.00 0.00 84 1008.8
20260506083020 16 217 3.2 6.4 0.00 0.00 0.00 83 1009.0
20260506081518 16 185 4.8 8.0 0.00 0.00 0.00 81 1009.0
20260506073013 16 211 4.8 9.7 0.00 0.00 0.00 76 1009.1
20260506071510 17 192 3.2 9.7 0.00 0.00 0.00 75 1009.2
20260506061503 17 214 4.8 11.3 0.00 0.00 0.00 71 1009.6
20260506050103 17 211 4.8 11.3 0.00 0.00 0.00 71 1010.0
20260506044559 17 207 4.8 9.7 0.00 0.00 0.00 71 1010.3
20260506043051 17 181 4.8 11.3 0.00 0.00 0.00 70 1010.2
20260506041553 17 226 6.4 12.9 0.00 0.00 0.00 70 1010.2
20260506040047 18 209 4.8 14.5 0.00 0.00 0.00 70 1010.3
20260506034546 18 238 3.2 11.3 0.00 0.00 0.00 69 1010.2
20260506033045 18 205 4.8 12.9 0.00 0.00 0.00 68 1010.1
20260506031556 18 209 4.8 9.7 0.00 0.00 0.00 66 1010.2
20260506030058 18 207 4.8 11.3 0.00 0.00 0.00 63 1010.0
20260506024544 19 174 4.8 11.3 0.00 0.00 0.00 60 1009.7
20260506023043 20 205 4.8 9.7 0.00 0.00 0.00 58 1010.0
20260506021542 20 207 4.8 11.3 0.00 0.00 0.00 57 1010.0
20260506020042 20 201 4.8 9.7 0.00 0.00 0.00 56 1010.0
20260506014541 20 169 3.2 12.9 0.00 0.00 0.00 56 1010.1
20260506013045 20 173 4.8 12.9 0.00 0.00 0.00 55 1010.0
20260506011540 21 205 4.8 8.0 0.00 0.00 0.00 53 1009.8
20260506010039 21 210 3.2 9.7 0.00 0.00 0.00 51 1009.8
20260506004605 21 198 4.8 9.7 0.00 0.00 0.00 49 1009.8
20260506003038 21 214 3.2 8.0 0.00 0.00 0.00 48 1009.7
20260506001537 21 212 3.2 9.7 0.00 0.00 0.00 47 1009.5
20260506000038 22 208 4.8 12.9 0.00 0.00 0.00 46 1009.1
20260505234604 22 191 3.2 9.7 0.00 0.00 0.00 46 1009.1
20260505233035 22 222 3.2 9.7 0.00 0.00 0.00 45 1009.1
20260505231536 22 235 3.2 9.7 0.00 0.00 0.00 43 1009.0
20260505230035 22 210 3.2 11.3 0.00 0.00 0.00 43 1008.8
20260505224534 22 186 6.4 12.9 0.00 0.00 0.00 42 1008.7
20260505223035 23 251 8.0 16.1 0.00 0.00 0.00 41 1008.7
20260505221531 23 224 4.8 14.5 0.00 0.00 0.00 41 1008.6
20260505220030 24 217 8.0 16.1 0.00 0.00 0.00 39 1008.5
20260505214537 25 224 6.4 14.5 0.00 0.00 0.00 38 1008.3
20260505213027 25 232 6.4 14.5 0.00 0.00 0.00 39 1008.4
20260505211526 24 200 9.7 19.3 0.00 0.00 0.00 38 1008.2
20260505210028 25 203 8.0 16.1 0.00 0.00 0.00 36 1008.0